Flag for Germany Weather past 2 weeks in Korschenbroich, North Rhine-Westphalia, Germany

Now
55 °F

Clear.


Feels Like: 55 °F
Forecast: 47 / 68 °F
Wind: 5 mph from Northwest

Location: Duesseldorf

Current Time: Jul 31, 2015 at 1:10:36 AM

Latest Report: Jul 31, 2015 at 12:20 AM


Visibility: 10 mi

Pressure: 30.09 "Hg

Humidity: 82%

Dew point: 50 °F

Location of KorschenbroichLocation

Historic Weather in Korschenbroich — Graph

°F

Korschenbroich temperature yesterday

Maximum temperature yesterday: 66 °F (at 1:20 PM)
Minimum temperature yesterday: 50 °F (at 2:20 AM)
Average temperature yesterday: 57 °F

Past Weeks' High & Low Weather Summary

 TemperatureHumidityPressure
High91 °F (Jul 17, 4:50 PM)100% (Jul 16, 4:50 AM)30.12 "Hg (Jul 16, 4:50 AM)
Low48 °F (Jul 26, 5:50 AM)26% (Jul 17, 4:50 PM)29.50 "Hg (Jul 25, 6:50 AM)
Average66 °F71%29.88 "Hg
* Reported Jul 15 11:20 PM — Jul 30 11:20 PM, Korschenbroich, Weather by CustomWeather, © 2015

Note: Actual official high and low records may vary slightly from our data, if they occured in-between our weather recording intervals... More about our weather records

Advertising

Korschenbroich weather history for previous 24 hours

 ConditionsComfort  
Time TempWeatherWind HumidityBarometerVisibility
11:20 PM
Thu, Jul 30
57 °FClear.6 mph82%30.09 "Hg10 mi
10:50 PM57 °FPassing clouds.6 mph82%30.09 "HgN/A
10:20 PM57 °FLight rain. Partly sunny.6 mph82%30.07 "HgN/A
9:50 PM57 °FBroken clouds.7 mph88%30.07 "HgN/A
9:20 PM57 °FPartly sunny.6 mph88%30.07 "HgN/A
8:50 PM59 °FBroken clouds.6 mph77%30.07 "HgN/A
8:20 PM59 °FPartly sunny.6 mph77%30.04 "HgN/A
7:50 PM59 °FScattered showers. Broken clouds.6 mph77%30.04 "HgN/A
7:20 PM59 °FScattered showers. Partly sunny.5 mph77%30.04 "HgN/A
6:50 PM59 °FSprinkles. Broken clouds.7 mph77%30.04 "HgN/A
6:20 PM59 °FSprinkles. Broken clouds.3 mph82%30.04 "HgN/A
5:50 PM61 °FSprinkles. Partly sunny.10 mph63%30.01 "HgN/A
5:20 PM64 °FScattered showers. Partly sunny.6 mph52%30.01 "HgN/A
4:50 PM64 °FPartly sunny.6 mph52%30.01 "HgN/A
4:20 PM63 °FPartly sunny.8 mph56%30.01 "HgN/A
3:50 PM63 °FPartly sunny.8 mph64%30.01 "HgN/A
3:20 PM61 °FPartly sunny.9 mph68%30.01 "HgN/A
2:50 PM61 °FScattered showers. Partly sunny.14 mph63%30.01 "HgN/A
2:20 PM61 °FScattered showers. Partly sunny.16 mph63%30.01 "HgN/A
1:50 PM66 °FScattered clouds.9 mph49%29.98 "HgN/A
1:20 PM66 °FScattered clouds.10 mph52%29.98 "HgN/A
12:50 PM64 °FScattered clouds.9 mph49%29.98 "HgN/A
12:20 PM63 °FPassing clouds.9 mph59%29.98 "HgN/A
11:50 AM63 °FPassing clouds.10 mph64%29.98 "HgN/A
11:20 AM63 °FScattered clouds.10 mph64%29.98 "HgN/A
10:20 AM59 °FScattered clouds.8 mph72%29.98 "HgN/A
9:50 AM59 °FScattered clouds.8 mph77%29.98 "HgN/A
9:20 AM59 °FScattered clouds.8 mph77%29.98 "HgN/A
8:50 AM57 °FPassing clouds.8 mph82%29.95 "HgN/A
8:20 AM55 °FScattered clouds.9 mph82%29.95 "HgN/A
7:50 AM55 °FPartly sunny.9 mph82%29.95 "HgN/A
7:20 AM54 °FBroken clouds.9 mph88%29.95 "HgN/A
6:50 AM54 °FPassing clouds.7 mph88%29.95 "HgN/A
6:20 AM52 °FPartly cloudy.6 mph88%29.95 "HgN/A
5:50 AM52 °FPassing clouds.6 mph88%29.95 "HgN/A
5:20 AM52 °FPassing clouds.7 mph88%29.92 "HgN/A
4:50 AM52 °FPassing clouds.7 mph88%29.92 "HgN/A
4:20 AM52 °FPassing clouds.6 mph88%29.92 "HgN/A
3:50 AM50 °FPassing clouds.6 mph88%29.92 "HgN/A
3:20 AM50 °FPassing clouds.3 mph88%29.92 "HgN/A
2:50 AM50 °FClear.6 mph88%29.92 "Hg10 mi
2:20 AM50 °FClear.7 mph88%29.92 "Hg10 mi
1:50 AM52 °FClear.5 mph88%29.92 "Hg10 mi
1:20 AM52 °FClear.7 mph88%29.92 "Hg10 mi
Weather by CustomWeather, © 2015

See weather overviewHow to use our weather pages